Flag Weather past 2 weeks in Barcelona, Barcelona, Spain

Now
61 °F

Passing clouds.


Feels Like: 61 °F
Forecast: 53 / 69 °F
Wind: 5 mph from Northwest

Location: Barcelona Airport

Current Time: Nov 1, 2014 at 9:30:01 AM

Latest Report: Nov 1, 2014 at 8:30 AM


Visibility: 6 mi

Pressure: 30.24 "Hg

Humidity: 88%

Dew point: 57 °F

Location of BarcelonaLocation

Historic Weather in Barcelona — Graph

°F

Barcelona temperature yesterday

Maximum temperature yesterday: 72 °F (at 12:00 PM)
Minimum temperature yesterday: 63 °F (at 4:00 AM)
Average temperature yesterday: 66 °F

Past Weeks' High & Low Weather Summary

 TemperatureHumidityPressure
High81 °F (Oct 21, 1:00 PM)100% (Oct 18, 8:30 PM)30.27 "Hg (Oct 18, 8:30 PM)
Low55 °F (Oct 23, 7:30 AM)29% (Oct 24, 12:30 PM)29.98 "Hg (Oct 23, 6:00 PM)
Average66 °F75%30.12 "Hg
* Reported Oct 17 9:00 AM — Nov 1 8:30 AM, Barcelona, Weather by CustomWeather, © 2014

Note: Actual official high and low records may vary slightly from our data, if they occured in-between our weather recording intervals... More about our weather records

Advertising

Barcelona weather history for previous 24 hours

 ConditionsComfort  
Time TempWeatherWind HumidityBarometerVisibility
8:30 AM
Nov 1
61 °FPassing clouds.5 mph88%30.24 "Hg6 mi
8:00 AM61 °FPassing clouds.5 mph83%30.21 "Hg6 mi
7:30 AM61 °FScattered clouds.7 mph83%30.21 "Hg6 mi
7:00 AM61 °FPassing clouds.2 mph88%30.21 "Hg6 mi
6:30 AM59 °FPassing clouds.5 mph88%30.21 "Hg5 mi
6:00 AM59 °FPassing clouds.5 mph88%30.21 "Hg5 mi
5:30 AM61 °FPassing clouds.1 mph88%30.21 "Hg6 mi
5:00 AM61 °FPassing clouds.5 mph88%30.21 "Hg6 mi
4:30 AM61 °FPassing clouds.1 mph88%30.21 "Hg6 mi
4:00 AM61 °FPassing clouds.3 mph88%30.21 "Hg6 mi
3:30 AM61 °FPassing clouds.5 mph83%30.21 "Hg6 mi
3:00 AM61 °FPassing clouds.5 mph88%30.21 "Hg6 mi
2:30 AM63 °FPassing clouds.5 mph83%30.21 "Hg6 mi
2:00 AM63 °FPassing clouds.3 mph83%30.21 "HgN/A
1:30 AM63 °FPassing clouds.1 mph83%30.21 "HgN/A
1:00 AM63 °FPassing clouds.1 mph83%30.24 "HgN/A
12:30 AM64 °FPassing clouds.3 mph78%30.24 "HgN/A
12:00 AM64 °FPassing clouds.2 mph78%30.24 "HgN/A
11:30 PM
Oct 31
64 °FPassing clouds.3 mph78%30.24 "HgN/A
11:00 PM64 °FPassing clouds.3 mph78%30.24 "HgN/A
10:30 PM64 °FPassing clouds.2 mph83%30.24 "HgN/A
10:00 PM66 °FPassing clouds.2 mph78%30.24 "HgN/A
9:30 PM66 °FPassing clouds.No wind78%30.24 "HgN/A
9:00 PM68 °FPassing clouds.No wind73%30.24 "HgN/A
8:30 PM68 °FPassing clouds.1 mph73%30.24 "HgN/A
8:00 PM68 °FPassing clouds.3 mph73%30.24 "HgN/A
7:30 PM68 °FPassing clouds.5 mph73%30.21 "HgN/A
7:00 PM68 °FPassing clouds.2 mph73%30.24 "HgN/A
6:30 PM68 °FPassing clouds.3 mph73%30.24 "HgN/A
6:00 PM68 °FPassing clouds.3 mph73%30.21 "HgN/A
5:30 PM68 °FPartly sunny.3 mph73%30.21 "HgN/A
5:00 PM68 °FPartly sunny.5 mph69%30.21 "HgN/A
4:30 PM70 °FScattered clouds.6 mph69%30.21 "HgN/A
4:00 PM70 °FScattered clouds.8 mph69%30.21 "HgN/A
3:30 PM70 °FScattered clouds.8 mph69%30.21 "HgN/A
3:00 PM70 °FScattered clouds.7 mph73%30.21 "HgN/A
2:30 PM70 °FPassing clouds.8 mph73%30.21 "HgN/A
2:00 PM70 °FPassing clouds.8 mph73%30.24 "HgN/A
1:30 PM70 °FScattered clouds.8 mph73%30.24 "Hg6 mi
1:00 PM70 °FScattered clouds.8 mph73%30.24 "Hg6 mi
12:30 PM72 °FScattered clouds.8 mph65%30.24 "Hg6 mi
12:00 PM72 °FScattered clouds.7 mph65%30.27 "Hg6 mi
11:30 AM70 °FScattered clouds.5 mph73%30.27 "Hg4 mi
11:00 AM68 °FFog.5 mph73%30.27 "Hg3 mi
10:30 AM66 °FFog.6 mph78%30.27 "Hg3 mi
10:00 AM64 °FFog.7 mph83%30.27 "Hg3 mi
9:30 AM64 °FFog.7 mph83%30.27 "Hg2 mi
9:00 AM63 °FFog.7 mph88%30.27 "Hg2 mi
Weather by CustomWeather, © 2014

See weather overviewHow to use our weather pages